Flag for U.S.A. Weather past 2 weeks in Pomona, California, U.S.A.

Now
87 °F

Scattered clouds.


Feels Like: 86 °F
Forecast: 64 / 85 °F
Wind: 16 mph from West

Location: Chino Airport

Current Time: Jul 4, 2015 at 2:46:58 PM

Latest Report: Jul 4, 2015 at 1:53 PM


Visibility: 10 mi

Pressure: 29.87 "Hg

Humidity: 37%

Dew point: 58 °F

Location of PomonaLocation

Historic Weather in Pomona — Graph

°F

Pomona temperature yesterday

Maximum temperature yesterday: 93 °F (at 3:53 PM)
Minimum temperature yesterday: 64 °F (at 5:53 AM)
Average temperature yesterday: 77 °F

Past Weeks' High & Low Weather Summary

 TemperatureHumidityPressure
High103 °F (Jun 28, 3:53 PM)93% (Jun 22, 5:53 AM)30.00 "Hg (Jun 22, 5:53 AM)
Low60 °F (Jun 23, 5:53 AM)13% (Jun 19, 4:53 PM)29.78 "Hg (Jun 19, 5:53 PM)
Average79 °F52%29.89 "Hg
* Reported Jun 19 12:53 PM — Jul 4 12:53 PM, Pomona, Weather by CustomWeather, © 2015

Note: Actual official high and low records may vary slightly from our data, if they occured in-between our weather recording intervals... More about our weather records

Advertising

Pomona weather history for previous 24 hours

 ConditionsComfort  
Time TempWeatherWind HumidityBarometerVisibility
12:53 PM
Sat, Jul 4
85 °FScattered clouds.10 mph42%29.88 "Hg10 mi
11:53 AM81 °FPassing clouds.9 mph49%29.88 "Hg10 mi
10:53 AM82 °FPassing clouds.3 mph48%29.88 "Hg10 mi
9:53 AM78 °FPassing clouds.3 mph52%29.88 "Hg10 mi
8:53 AM72 °FPassing clouds.No wind64%29.89 "Hg10 mi
7:53 AM68 °FPassing clouds.No wind76%29.88 "Hg10 mi
6:53 AM64 °FPassing clouds.3 mph90%29.88 "Hg7 mi
5:53 AM63 °FFog.No wind87%29.87 "Hg4 mi
4:53 AM63 °FFog.3 mph87%29.87 "Hg6 mi
3:53 AM63 °FClear.3 mph87%29.87 "Hg7 mi
2:53 AM65 °FClear.6 mph81%29.87 "Hg8 mi
1:53 AM65 °FClear.6 mph76%29.87 "Hg9 mi
12:53 AM68 °FClear.3 mph65%29.88 "Hg10 mi
11:53 PM
Fri, Jul 3
69 °FClear.8 mph61%29.88 "Hg10 mi
10:53 PM70 °FClear.8 mph59%29.88 "Hg10 mi
9:53 PM72 °FClear.7 mph52%29.88 "Hg10 mi
8:53 PM75 °FSunny.10 mph40%29.84 "Hg10 mi
7:53 PM79 °FScattered clouds.12 mph47%29.83 "Hg10 mi
6:53 PM86 °FScattered clouds.13 mph36%29.81 "Hg10 mi
5:53 PM89 °FScattered clouds.13 mph38%29.81 "Hg10 mi
4:53 PM89 °FScattered clouds.16 mph38%29.82 "Hg10 mi
3:53 PM93 °FScattered clouds.17 mph31%29.83 "Hg10 mi
2:53 PM92 °FScattered clouds.13 mph30%29.85 "Hg10 mi
Weather by CustomWeather, © 2015

See weather overviewHow to use our weather pages